Вернуться в каталог

COSMOS 1275 DEB

АктивенPO
NORAD 14441·DEBRIS·🇷🇺 Russia

Запущен Jun 4, 1981 с Plesetsk Cosmodrome

Loading…

Ближайшие Пролёты (ближайшие 24 часа)

TLE

СвежийSource: Space-Track

Эпоха: Sep 14, 2026, 14:32 UTC

1 14441U 81053JH  26257.60605905  .00001809  00000-0  95626-3 0  9993
2 14441  83.1133 204.9830 0046360  58.5558 302.0139 14.12739115285698

Отслеживайте COSMOS 1275 DEB в реальном времени с AllMySat

Download on the App Store